Total_Precipitation_Accumulation
1.12 1.09 1.04 1.14 1.13 1.12 1.20 1.17 1.03 1.05 1.03 0.92 0.89 0.90 0.94 0.95 1.13 1.28 1.63 2.26 2.99 3.67 3.82 3.48 2.99 2.70 2.59 2.51 2.40 2.34 2.27 2.28 2.46 2.66 2.60 2.62 2.77 2.75 2.73 3.07 3.31 3.60 3.70
0.91 1.04 1.07 1.17 1.10 1.14 1.22 1.12 1.07 1.10 1.12 1.02 0.93 0.93 0.93 0.97 1.07 1.21 1.39 1.79 2.26 2.96 3.66 3.78 3.38 3.00 2.74 2.68 2.69 2.72 2.50 2.36 2.37 2.58 2.62 2.47 2.49 2.45 2.46 2.73 3.05 3.31 3.71
0.90 1.02 1.09 1.13 1.13 1.13 1.14 1.19 1.21 1.17 1.08 1.02 1.02 0.98 0.93 0.95 1.12 1.25 1.33 1.56 1.67 1.85 2.62 3.44 3.68 3.48 3.20 3.16 3.12 2.98 2.77 2.59 2.42 2.46 2.56 2.45 2.38 2.22 2.34 2.51 2.63 2.76 3.27
0.94 1.16 1.22 1.11 1.17 1.26 1.31 1.36 1.32 1.26 1.19 1.19 1.21 1.15 1.08 1.11 1.23 1.32 1.27 1.31 1.41 1.37 1.68 2.25 2.77 3.12 3.39 3.50 3.48 3.28 3.04 2.84 2.48 2.40 2.42 2.39 2.28 2.12 2.22 2.36 2.40 2.53 2.77
1.12 1.34 1.42 1.29 1.26 1.43 1.41 1.30 1.36 1.45 1.44 1.48 1.36 1.36 1.33 1.34 1.33 1.26 1.24 1.32 1.41 1.45 1.55 1.53 1.79 2.20 2.86 3.37 3.66 3.85 3.47 3.16 2.80 2.57 2.50 2.33 2.19 2.10 2.09 2.15 2.19 2.35 2.44
1.33 1.53 1.69 1.62 1.55 1.69 1.73 1.60 1.72 1.82 1.76 1.83 1.65 1.54 1.47 1.46 1.39 1.38 1.36 1.42 1.56 1.48 1.54 1.53 1.54 1.40 1.81 2.54 3.21 3.70 3.72 3.52 3.18 2.78 2.62 2.28 2.20 2.09 1.97 1.97 2.05 2.21 2.33
1.74 1.90 1.88 2.12 2.17 2.15 2.20 2.14 2.32 2.39 2.14 2.00 2.37 2.29 1.85 1.51 1.37 1.45 1.54 1.61 1.73 1.76 1.74 1.74 1.72 1.49 1.41 1.72 2.37 3.32 3.56 3.47 3.25 2.95 2.84 2.58 2.31 2.09 2.02 2.03 2.07 2.06 2.20
2.12 2.03 2.15 2.40 2.43 2.54 2.62 2.48 2.67 2.82 2.50 2.21 2.72 3.23 2.79 2.28 1.61 1.35 1.46 1.63 1.83 1.87 1.81 1.69 1.72 1.70 1.63 1.68 1.80 2.49 3.12 3.47 3.41 3.22 3.08 2.98 2.51 2.24 2.08 2.07 2.10 2.07 2.05
2.53 2.42 2.38 2.54 2.58 2.67 2.86 2.88 2.86 3.04 3.01 2.66 2.63 3.25 3.26 2.88 2.39 1.78 1.60 1.67 1.88 1.98 2.00 1.95 1.79 1.82 1.75 1.82 1.92 1.81 2.10 2.79 3.31 3.29 3.17 3.10 2.85 2.50 2.19 2.14 2.15 2.07 1.94
2.68 2.61 2.58 2.67 2.70 2.69 2.79 2.84 2.84 3.17 3.45 3.24 2.94 2.69 2.65 2.68 2.75 2.40 1.96 1.78 1.89 1.98 2.09 1.99 2.01 2.09 2.07 2.05 2.03 1.76 1.63 1.88 2.49 3.00 3.13 3.17 3.02 2.75 2.44 2.34 2.37 2.21 2.09
2.50 2.37 2.45 2.61 2.63 2.65 2.67 2.83 2.96 3.25 3.33 3.29 3.20 3.05 2.86 2.67 2.29 2.38 2.36 2.11 2.03 1.93 2.01 2.17 2.25 2.29 2.24 2.38 2.50 1.97 1.59 1.55 1.92 2.48 2.95 3.15 3.23 3.19 2.92 2.61 2.49 2.47 2.42
2.43 2.25 2.29 2.37 2.46 2.52 2.50 2.55 2.75 2.94 3.21 3.36 3.30 3.14 3.12 3.06 2.84 2.62 2.30 2.19 2.31 2.17 2.02 2.00 2.09 2.18 2.32 2.45 2.38 2.19 1.68 1.51 1.64 1.84 2.20 2.71 3.11 3.36 3.29 3.11 2.91 2.75 2.73
2.40 2.36 2.26 2.26 2.29 2.34 2.44 2.64 2.65 2.72 2.93 3.16 3.20 3.15 3.14 2.98 2.91 2.88 2.62 2.26 2.18 2.11 2.03 1.98 1.95 2.02 2.09 2.20 2.23 2.17 1.76 1.65 1.55 1.52 1.57 1.76 2.24 2.77 3.19 3.38 3.33 3.10 3.10
1.96 1.95 2.00 2.09 2.18 2.23 2.32 2.48 2.57 2.60 2.66 2.73 2.76 2.97 3.09 2.98 2.78 2.69 2.69 2.74 2.47 2.23 2.05 1.96 1.91 1.89 1.93 1.94 2.07 2.09 1.66 1.59 1.51 1.43 1.37 1.29 1.44 1.77 2.29 2.71 2.83 2.92 3.16
1.55 1.56 1.60 1.75 1.94 2.05 2.10 2.22 2.39 2.39 2.47 2.50 2.57 2.66 2.69 2.77 2.65 2.47 2.44 2.56 2.68 2.47 2.28 2.08 1.88 1.70 1.74 1.72 1.81 1.57 1.51 1.55 1.53 1.42 1.29 1.19 1.15 1.27 1.56 1.95 2.14 2.08 2.14
1.48 1.54 1.56 1.57 1.69 1.77 1.87 2.02 2.14 2.22 2.28 2.25 2.26 2.34 2.41 2.48 2.48 2.43 2.41 2.46 2.49 2.46 2.33 2.08 1.79 1.53 1.57 1.64 1.81 1.54 1.59 1.79 1.67 1.51 1.27 1.20 1.17 1.15 1.23 1.36 1.48 1.42 1.38
1.52 1.55 1.58 1.60 1.61 1.68 1.73 1.82 1.93 2.06 2.06 2.06 1.94 1.98 2.13 2.24 2.45 2.48 2.45 2.43 2.42 2.34 2.20 2.07 1.82 1.60 1.55 1.65 1.74 1.61 1.63 1.68 1.59 1.53 1.36 1.26 1.16 1.21 1.25 1.27 1.32 1.25 1.12
1.39 1.44 1.54 1.50 1.48 1.53 1.61 1.72 1.82 1.84 1.88 1.83 1.73 1.76 1.88 1.97 2.14 2.27 2.39 2.30 2.32 2.29 2.26 2.21 1.98 1.77 1.67 1.67 1.74 1.70 1.58 1.56 1.57 1.64 1.45 1.35 1.25 1.18 1.25 1.23 1.32 1.37 1.27
1.37 1.44 1.54 1.62 1.51 1.42 1.49 1.57 1.65 1.67 1.64 1.55 1.52 1.58 1.66 1.74 1.85 1.97 2.08 2.17 2.21 2.19 2.28 2.24 2.04 1.85 1.69 1.63 1.68 1.62 1.57 1.63 1.54 1.64 1.58 1.45 1.39 1.29 1.27 1.26 1.25 1.35 1.36
1.26 1.27 1.39 1.48 1.50 1.44 1.38 1.36 1.37 1.54 1.54 1.44 1.32 1.30 1.33 1.37 1.49 1.63 1.75 1.91 2.07 2.21 2.28 2.30 2.14 1.90 1.71 1.65 1.73 1.77 1.75 1.65 1.64 1.56 1.59 1.57 1.56 1.51 1.38 1.33 1.23 1.22 1.31
1.08 1.14 1.29 1.44 1.49 1.46 1.47 1.44 1.34 1.37 1.44 1.46 1.40 1.28 1.17 1.17 1.31 1.40 1.46 1.72 1.93 2.09 2.21 2.27 2.16 1.98 1.81 1.73 1.69 1.69 1.76 1.85 1.84 1.68 1.63 1.54 1.50 1.37 1.24 1.24 1.22 1.15 1.13
0.99 0.99 1.08 1.21 1.36 1.33 1.52 1.57 1.46 1.31 1.32 1.34 1.34 1.33 1.32 1.28 1.16 1.12 1.19 1.36 1.61 1.80 1.97 2.08 2.10 1.92 1.72 1.69 1.75 1.77 1.77 1.83 1.87 1.74 1.68 1.74 1.68 1.55 1.38 1.23 1.28 1.19 1.12
0.96 0.96 1.03 1.16 1.29 1.49 1.57 1.39 1.46 1.40 1.33 1.34 1.30 1.30 1.32 1.29 1.36 1.21 1.17 1.17 1.18 1.37 1.62 1.84 1.86 1.76 1.80 1.72 1.71 1.68 1.66 1.64 1.66 1.71 1.73 1.75 1.73 1.62 1.45 1.36 1.42 1.31 1.24
0.96 0.99 1.06 1.14 1.22 1.45 1.53 1.34 1.53 1.54 1.51 1.44 1.39 1.42 1.46 1.48 1.41 1.52 1.48 1.35 1.23 1.20 1.33 1.27 1.34 1.63 1.77 1.81 1.82 1.83 1.86 1.76 1.67 1.69 1.64 1.66 1.57 1.53 1.44 1.34 1.39 1.28 1.20
0.98 0.99 0.98 1.00 1.02 1.14 1.29 1.22 1.36 1.47 1.56 1.55 1.43 1.40 1.43 1.43 1.68 1.78 1.61 1.52 1.40 1.30 1.50 1.53 1.52 1.60 1.71 1.73 1.71 1.76 1.82 1.78 1.69 1.62 1.52 1.44 1.38 1.46 1.57 1.48 1.40 1.43 1.34
1.03 0.95 0.92 0.89 0.90 0.94 1.15 1.04 1.16 1.23 1.38 1.53 1.50 1.44 1.61 1.53 1.57 1.56 1.46 1.62 1.54 1.38 1.31 1.29 1.29 1.34 1.38 1.46 1.54 1.51 1.62 1.67 1.58 1.61 1.47 1.42 1.39 1.47 1.55 1.49 1.33 1.28 1.31